Regional Weather Roundup
Issued by NWS

Home | Current Version | Previous Version | Graphics & Text | Print | Product List | Glossary On
Versions: 1 2 3 4 5 6 7 8 9 10 11 12 13 14 15 16 17 18 19 20 21 22 23 24 25 26 27 28 29 30 31 32 33 34 35 36 37 38 39 40 41 42 43 44 45 46 47 48 49 50
380
ASUS45 KSLC 271710
RWRUT

UTAH REGIONAL WEATHER ROUNDUP
NATIONAL WEATHER SERVICE SALT LAKE CITY UT
1000 AM MST MON FEB 27 2017

UTZ001>011-023>025-271800-

NORTHERN UTAH

CITY           SKY/WX    TMP DP  RH WIND       PRES   REMARKS
BRIGHAM CITY     N/A     32  26  79 CALM      29.67R
DUGWAY         SNOW      31  31  99 W3        29.68R VSB 1/2
HILL AFB       LGT SNOW  29  27  91 SE10      29.65S FOG     WCI  20
LOGAN          CLOUDY    29  25  85 NW7       29.64S WCI  22
OGDEN          CLOUDY    29  27  92 S12       29.65R WCI  19
SALT LAKE CITY LGT SNOW  30  30 100 S7        29.68R VSB 1   WCI  23
TOOELE VALLEY  LGT SNOW  32  32 100 E6        29.69R VSB 3/4 WCI  26
WENDOVER       PTSUNNY   34  19  55 NE10      29.68R WCI  26
HEBER CITY     SNOW      28  27  93 N12       29.59R VSB 1/2 WCI  18
WEST JORDAN    CLOUDY    32  32 100 CALM      29.68R VSB 1/4

$$

UTZ011>015-024>027-271800-

CENTRAL/NORTHEAST UTAH

CITY           SKY/WX    TMP DP  RH WIND       PRES   REMARKS
PROVO AIRPORT  SNOW      30  30 100 N10       29.65S VSB 1/4 WCI  21
MOAB/CANYONLAN CLOUDY    45  25  45 S20G32    29.68F
DELTA          CLOUDY    37  30  75 S22G30    29.65R WCI  27
PRICE          CLOUDY    33  21  61 E5        29.63S WCI  29
ROOSEVELT      CLOUDY    30  19  64 CALM      29.67S
VERNAL         CLOUDY    29  15  56 CALM      29.64S

$$

UTZ013>016-019>022-027-271800-

SOUTHERN UTAH

CITY           SKY/WX    TMP DP  RH WIND       PRES   REMARKS
BRYCE CANYON   CLOUDY    28  20  71 S22G35    29.73R WCI  14
CEDAR CITY     PTSUNNY   39  23  52 SW24G35   29.69R WCI  28
MILFORD        CLOUDY    40  27  59 SW28G37   29.69R WCI  29
ST GEORGE      CLOUDY    51  29  42 SW20G25   29.79S
HANKSVILLE     MOSUNNY   45  23  42 SW17G28   29.72S
BLANDING       CLOUDY    38  24  58 S17G26    29.88S WCI  28

$$

REGIONAL REPORTS     COLORADO/ARIZONA

CITY           SKY/WX    TMP DP  RH WIND       PRES   REMARKS
CRAIG, CO      CLOUDY    37  20  50 SW21G37   29.61S WCI  26
GRAND JUNCTION CLOUDY    43  26  51 S13       29.71S
RIFLE, CO      CLOUDY    42  24  49 MISG      29.69S
MONTROSE, CO   CLOUDY    41  19  41 VRB5      29.75F
CORTEZ, CO     CLOUDY    37  27  67 SE13      29.86R WCI  29
COLORADO CITY  CLOUDY    43  30  61 S13G20    29.84S
PAGE, AZ       MOSUNNY   49  15  25 SW15G24   29.78R
GRAND CANYON   CLOUDY    34  27  75 S22G37    29.89R WCI  22
KINGMAN, AZ    CLOUDY    49  14  24 S18G28    29.88R
FLAGSTAFF, AZ  LGT SNOW  30  28  92 SW22G30   29.92S FOG     WCI  17

$$

REGIONAL REPORTS    NEVADA/IDAHO/WYOMING

CITY           SKY/WX    TMP DP  RH WIND       PRES   REMARKS
LAS VEGAS, NV  CLOUDY    52  27  38 S14G20    29.77R
ELY, NY        PTSUNNY   33  21  61 SW13      29.65R WCI  24
ELKO, NV       CLOUDY    26  17  68 W12       29.71R WCI  16
POCATELLO, ID  CLOUDY    25  21  85 W7        29.63R WCI  17
BURLEY, ID     LGT SNOW  27  23  85 W14       29.65R VSB 3/4 WCI  16
FORT BRIDGER,  LGT SNOW  23  23  99 CALM      29.62S
EVANSTON, WY   LGT SNOW  20  17  88 CALM      29.58S FOG
ROCK SPRINGS,  SNOW      21  17  84 W9        29.61R VSB 1/2 WCI  11

$$




USA.gov is the U.S. government's official web portal to all federal, state and local government web resources and services.